EOS-6 (OCEANSAT-3)

Last updated on Mon Jun 22 2026 00:03:00 GMT+0000 (Coordinated Universal Time)

1 54361U 22158A 26172.51908664 .00000188 00000+0 63725-4 0 9997 2 54361 98.3543 270.6558 0000999 46.6434 313.4842 14.47002510188466
UTC large
Height (km)
Speed (km/s)
/
Latitude / Longitude
Inclination (degrees)
Orbital Period (minutes)
Azimuth
Elevation
Range (km)
Doppler Factor

Next 0 passes for location: London (51.5072 / 0.1276)

No passes found over London.
EOS-6 (OCEANSAT-3)